COSMOS 397 DEB *, 19367

Orbit data source: Space-Track

COSMOS 397 DEB *, 19367 is space debris in LEO originally from a launch on Thu, 25 Feb 1971 UTC launched from the Tyuratam Missile And Space Complex (TTMTR). Debris objects in space refer to the collection of defunct objects orbiting the Earth. Examples of debris include non-operational satellites, rocket bodies, and fragments generated from explosions, collisions, or faulty payload assembly.

Loading next visibility...
Identifier
19367, 1971-015DS
Orbit
LEO
Country
Flag of CISCIS
Related business
Manufacturer
Unknown
Mission
Spacecraft
Bus & Motor
Unknown
Mass
Unknown
Launch date (UTC)
1971-02-25 (55 years ago)
Launch vehicle
Unknown
Launch site
Tyuratam Missile And Space Complex (TTMTR)
Object type
Payload
Rocket body
Debris
Shape & HBR
Unknown shape, 0.1 m
Radar Cross Section
Small (<0.1 m²)

Expand to show TLE details & history
Last TLE update: 18 hours ago

TLE from 18 hours ago
0 COSMOS 397 DEB *
1 19367U 71015DS  25348.85931043  .00000396  00000-0  39735-3 0  9993
2 19367  65.7103 136.3257 0167443 171.4812 340.5431 13.82380420897315
Epoch: 2025-12-14T20:37Z
TLE epoch observation values (Epoch: 2025-12-14T20:37:24.421Z)
Latitude
25.94429°
Longitude
-89.40771°
Altitude
842.121 km
Speed
7.493 km/s
True Right ascension
20h 14m 50s
True Declination
25° 48' 39"
Sunlit
Object was in daylight at epoch
Visualization orbit readout
Latitude
Unknown
Longitude
Unknown
Altitude
Unknown
Speed
Unknown
Apparent Right ascension
Unknown
Apparent Declination
Unknown
Sunlit
N/A
Visualization observer readout
Local Sidereal Time
13:18:48
Azimuth
Unknown
Elevation
Unknown
Doppler factor
Unknown
Orbital elements
Apogee altitude
1,076.753 km
Perigee altitude
831.21 km
Semi-major axis
7,332.118 km
Eccentricity
0.01674
Inclination
65.7103°
RAAN
136.3257°
Arg. of periapsis
171.4812°
True anomaly
339.89112°
Mean anomaly
340.5431°
Eccentric anomaly
340.21841°
Mean motion
3.457 °/min
Orbital period
104.14 mins
BSTAR
0.00039735
Loading maneuver chart data...
Computing Atmospheric mass density...
Loading historical data...
Loading historical data...
Loading historical data...
Loading historical data...
Loading historical data...
Loading historical data...
Loading historical data...

Documentation

Showing up to 5 results
|